Estación de Galvarino

Ultimos registro cada 15 minutos 57
Estación Fecha / Hora Temperatura Humedad Lluvia Velocidad Dirección Radiación Presion
57 Galvarino 10-05-2026 14:00 14,8 62,9 0 3 348 494,4 993,9
56 Galvarino 10-05-2026 13:45 14,5 63,8 0 3 350 509,4 994
55 Galvarino 10-05-2026 13:30 13,9 63,8 0 3 345 519,4 994,3
54 Galvarino 10-05-2026 13:15 13,9 62,9 0 2,5 347 526,9 994,7
53 Galvarino 10-05-2026 13:00 13,4 63,8 0 2,5 344 533,1 994,5
52 Galvarino 10-05-2026 12:45 13,1 63,9 0 2,5 334 536,9 994,9
51 Galvarino 10-05-2026 12:30 12,4 64,4 0 2,5 341 536,9 994,9
50 Galvarino 10-05-2026 12:15 11,8 66 0 2,5 337 531,9 994,8
49 Galvarino 10-05-2026 12:00 11,4 67,6 0 2,5 347 80,6 995,3
48 Galvarino 10-05-2026 11:45 11,1 68,9 0 2,5 344 34,4 995,4
47 Galvarino 10-05-2026 11:30 10,4 69,2 0 2 340 95,6 995,4
46 Galvarino 10-05-2026 11:15 10,2 71,2 0 1,5 350 461,9 995,7
45 Galvarino 10-05-2026 11:00 9,7 71,8 0 1,5 344 33,1 995,9
44 Galvarino 10-05-2026 10:45 9,3 72,3 0 1,5 348 31,9 995,8
43 Galvarino 10-05-2026 10:30 8,9 73,1 0 2 347 31,9 996
42 Galvarino 10-05-2026 10:15 8,8 74,7 0 1,5 350 30,6 995,8
41 Galvarino 10-05-2026 10:00 8,1 75,7 0 1,5 343 29,4 995,9
40 Galvarino 10-05-2026 09:45 7,7 77,2 0 1,5 358 28,1 995,9
39 Galvarino 10-05-2026 09:30 7,2 77,8 0 1,5 3 128,1 996
38 Galvarino 10-05-2026 09:15 6,7 79 0 1 7 34,4 995,9
37 Galvarino 10-05-2026 09:00 6,3 80,1 0 1 358 23,1 995,9
36 Galvarino 10-05-2026 08:45 5,8 81,2 0 0,5 1 20,6 996
35 Galvarino 10-05-2026 08:30 4,8 83,5 0 0 352 19,4 995,7
34 Galvarino 10-05-2026 08:15 5,2 81 0 0 352 14,4 995,7
33 Galvarino 10-05-2026 08:00 5 81,4 0 0 341 9,4 995,7
32 Galvarino 10-05-2026 07:45 5,6 79,1 0 0,5 344 4,4 995,6
31 Galvarino 10-05-2026 07:30 5,5 79,4 0 0 0 0,6 995,8
30 Galvarino 10-05-2026 07:15 5,2 81,4 0 0 347 0,6 995,8
29 Galvarino 10-05-2026 07:00 4,8 81,8 0 0 347 0,6 995,6
28 Galvarino 10-05-2026 06:45 5,4 79,3 0 0 344 0,6 995,6
27 Galvarino 10-05-2026 06:30 6,3 76,1 0 0 340 0,6 995,9
26 Galvarino 10-05-2026 06:15 5,9 77,2 0 0 330 0,6 995,8
25 Galvarino 10-05-2026 06:00 6,5 75,2 0 0,5 338 0,6 995,9
24 Galvarino 10-05-2026 05:45 6,4 75,6 0 0,5 336 0,6 996
23 Galvarino 10-05-2026 05:30 6,1 76,8 0 0,5 344 0,6 996
22 Galvarino 10-05-2026 05:15 6,2 76,3 0 0 3 0,6 996
21 Galvarino 10-05-2026 05:00 6,3 76 0 0 358 0,6 995,8
20 Galvarino 10-05-2026 04:45 6,7 75,4 0 0 352 0,6 996,1
19 Galvarino 10-05-2026 04:30 6,8 74,2 0 0,5 357 0,6 996
18 Galvarino 10-05-2026 04:15 6,8 74,4 0 0,5 357 0,6 995,8
17 Galvarino 10-05-2026 04:00 6,5 76,5 0 0,5 357 0,6 996
16 Galvarino 10-05-2026 03:45 6,4 77,3 0 1 354 0,6 995,9
15 Galvarino 10-05-2026 03:30 6,5 77 0 0,5 358 0,6 995,9
14 Galvarino 10-05-2026 03:15 6,6 76,2 0 0,5 345 0,6 996,3
13 Galvarino 10-05-2026 03:00 6,6 77,2 0 1 350 0,6 996,2
12 Galvarino 10-05-2026 02:45 6,6 77,4 0 1 347 0,6 996,3
11 Galvarino 10-05-2026 02:30 6,9 76 0 1 343 0,6 996,7
10 Galvarino 10-05-2026 02:15 6,6 78,2 0 1,5 347 0,6 996,9
9 Galvarino 10-05-2026 02:00 6,9 77,9 0 2 345 0,6 996,7
8 Galvarino 10-05-2026 01:45 6,9 78,1 0 1,5 345 0,6 996,8
7 Galvarino 10-05-2026 01:30 7 78,1 0 0,5 340 0,6 997
6 Galvarino 10-05-2026 01:15 7,1 77,3 0 2 341 0,6 997
5 Galvarino 10-05-2026 01:00 7,2 76,9 0 1 354 0,6 997,1
4 Galvarino 10-05-2026 00:45 6,8 78,7 0 0,5 6 0,6 997,1
3 Galvarino 10-05-2026 00:30 7,1 77,7 0 1 357 0,6 997,2
2 Galvarino 10-05-2026 00:15 7 78,4 0 0,5 341 0,6 997,2
1 Galvarino 10-05-2026 00:00 7,4 77,5 0 1 352 0,6 997,4